Regional Weather Roundup
Issued by NWS

Home | Current Version | Previous Version | Text Only | Print | Product List | Glossary Off
Versions: 1 2 3 4 5 6 7 8 9 10 11 12 13 14 15 16 17 18 19 20 21 22 23 24 25 26 27 28 29 30 31 32 33 34 35 36 37 38 39 40 41 42 43 44 45 46 47 48 49 50

000
ASUS45 KABQ 200710
RWRNM
WEATHER ROUNDUP FOR NEW MEXICO
NATIONAL WEATHER SERVICE ALBUQUERQUE NM
100 AM MDT WED AUG 20 2014

NOTE: "FAIR" MEANS FEW OR NO CLOUDS BELOW 12,000 FEET AGL WITH NO
       SIGNIFICANT WEATHER OR OBSTRUCTIONS TO VISION.

      THIS PRODUCT IS RELEASED AS TWO VERSIONS.  ONE VERSION NEAR
      THE TOP OF THE HOUR CONTAINING PRELIMINARY DATA FROM ALBUQUERQUE
      AND OTHER STATIONS.  A FINAL VERSION WITH ADDITIONAL DATA IS
      ISSUED ABOUT 10 MINUTES AFTER THE HOUR.

NMZ501-503-504-510>518-200800-
NORTHWEST PLATEAU/NORTHCENTRAL MOUNTAINS

CITY           SKY/WX    TMP DP  RH WIND       PRES   REMARKS
FARMINGTON     CLOUDY    63  58  83 N3        30.03F
LOS ALAMOS     MOCLDY    65  47  52 CALM      30.15S
SANTA FE       MOCLDY    66  48  52 SW6       30.08S
TAOS           CLOUDY    63  43  48 E5        30.14S
ANGEL FIRE     PTSUNNY   53  48  83 CALM      30.22S

$$
NMZ402-403-502-505>509-200800-
WESTCENTRAL MOUNTAINS/SOUTHWEST MOUNTAINS

CITY           SKY/WX    TMP DP  RH WIND       PRES   REMARKS
GALLUP         PTCLDY    59  54  83 S6        30.13S
SILVER CITY    MOCLDY    64  55  72 MISG      30.09S

$$
NMZ407-409-411-412-200800-
SOUTHERN DESERTS

CITY           SKY/WX    TMP DP  RH WIND       PRES   REMARKS
LORDSBURG      FAIR      63  59  88 W6        30.04S
DEMING         NOT AVBL
LAS CRUCES     PTCLDY    67  58  71 W12       30.00F
HOLLOMAN AFB   MOCLDY    75  57  53 SE12      29.94F
ALAMOGORDO     MOCLDY    73  57  56 S13       29.96F
T OR C         MOCLDY    73  55  53 NW9       29.99S

$$
NMZ519>523-200800-
CENTRAL VALLEYS/CENTRAL HIGHLANDS

CITY           SKY/WX    TMP DP  RH WIND       PRES   REMARKS
ALBUQUERQUE    MOCLDY    70  52  52 SW5       30.05S
DOUBLE EAGLE   MOCLDY    65  53  64 SW10      30.08S
MORIARTY ARPT  PTSUNNY   61  50  66 W3        30.09F
CLINES CORNERS CLOUDY    64  48  56 NW9       30.11F
BELEN          FAIR      67  53  60 SW6       30.04F
SOCORRO        FAIR      71  53  52 CALM      30.01S

$$
NMZ524>526-539-540-200800-
SOUTHCENTRAL MOUNTAINS

CITY           SKY/WX    TMP DP  RH WIND       PRES   REMARKS
RUIDOSO        MOCLDY    61  50  67 SW8       30.14S

$$
NMZ527>531-200800-
NORTHEAST HIGHLANDS/NORTHEAST PLAINS

CITY           SKY/WX    TMP DP  RH WIND       PRES   REMARKS
LAS VEGAS      PTCLDY    59  45  59 S5        30.09F
RATON          PTCLDY    63  47  55 W5        30.03F
CLAYTON        PTCLDY    69  56  62 S12       29.97F

$$
NMZ532>537-200800-
EASTCENTRAL PLAINS

CITY           SKY/WX    TMP DP  RH WIND       PRES   REMARKS
TUCUMCARI      PTCLDY    78  57  48 S18       29.90R
CANNON AFB     CLEAR     71  60  67 S9        29.96S
CLOVIS AIRPORT   N/A     73  59  60 S13       29.98S

$$
NMZ028-029-538-200800-
SOUTHEAST PLAINS

CITY           SKY/WX    TMP DP  RH WIND       PRES   REMARKS
ROSWELL        CLEAR     74  60  61 S5        29.88S
ARTESIA        PTCLDY    75  55  50 SW9       29.89S
CARLSBAD       PTCLDY    78  59  51 CALM      29.89S
HOBBS          CLEAR     75  63  64 S14       29.95S


$$



USA.gov is the U.S. government's official web portal to all federal, state and local government web resources and services.